User: anonymous   Login
Location: Alfortville
(48.8058°N, 2.4204°E)
Time: 14:19:31
(UTC+00:00)
Language:

SJ-11-01 - Orbit

View from above orbital plane
View from above orbital plane
View from above satellite
View from above satellite

Ground track
Ground track

The orbit data is extracted from the following two-line orbital elements,

1 36088U 09061A   22020.25557742  .00000165  00000-0  43265-4 0  9990
2 36088  97.9404  41.5631 0012936  52.8835 307.3550 14.60258729649514
Epoch (UTC): 20 January 2022 06:08:01
Eccentricity: 0.0012936
inclination: 97.9404°
perigee height: 683 km
apogee height: 701 km
right ascension of ascending node: 41.5631°
argument of perigee: 52.8835°
revolutions per day: 14.60258729
mean anomaly at epoch: 307.3550°
orbit number at epoch: 64951

The dashed part of the orbit path shows where the satellite is in the earth's shadow,  

DLR